Regional Weather Roundup
Issued by NWS

Home | Current Version | Previous Version | Text Only | Print | Product List | Glossary Off
Versions: 1 2 3 4 5 6 7 8 9 10 11 12 13 14 15 16 17 18 19 20 21 22 23 24 25 26 27 28 29 30 31 32 33 34 35 36 37 38 39 40 41 42 43 44 45 46 47 48 49 50

000
ASUS43 KMPX 021510
RWRMN
WEATHER ROUNDUP FOR MINNESOTA
NATIONAL WEATHER SERVICE TWIN CITIES/CHANHASSEN MN
1000 AM CDT MON MAY 02 2016


NOTE: "FAIR" INDICATES FEW OR NO CLOUDS BELOW 12,000 FEET WITH NO
SIGNIFICANT WEATHER AND/OR OBSTRUCTIONS TO VISIBILITY. N/A MEANS
CURRENT SKY AND/OR WEATHER CONDITIONS ARE NOT AVAILABLE.

MNZ060>063-068>070-021600-
   Twin Cities Metro

CITY           SKY/WX    TMP DP  RH WIND       PRES   REMARKS
TWIN CITIES    SUNNY     57  37  47 CALM      30.11F
ST PAUL        SUNNY     55  36  48 VRB3      30.12S
CRYSTAL        SUNNY     58  34  40 CALM      30.10F
BLAINE         SUNNY     55  39  54 CALM      30.11S
EDEN PRAIRIE   SUNNY     59  37  44 MISG      30.10S
SOUTH ST PAUL  SUNNY     57  37  48 CALM      30.11S
LAKE ELMO      FAIR      55  39  54 CALM      30.12S
$$
MNZ001>005-007-008-013>017-022>024-027-028-021600-
   Northwest Minnesota

CITY           SKY/WX    TMP DP  RH WIND       PRES   REMARKS
BEMIDJI        SUNNY     58  31  36 SW6       30.06F
HALLOCK        SUNNY     59  28  31 CALM      30.02S
ROSEAU         SUNNY     59  32  36 E5        30.05F
WARROAD        SUNNY     54  37  54 E5        30.07S
THIEF RVR FALL SUNNY     59  32  36 S5        30.05F
CROOKSTON      SUNNY     61  32  33 S7        30.04S
FOSSTON        SUNNY     61  30  31 S6        30.05F
DETROIT LAKES  SUNNY     59  34  38 SW5       30.06F
MOORHEAD       SUNNY     57  34  41 S6        30.05F
PARK RAPIDS    MOSUNNY   55  34  45 S3        30.06F
MAHNOMEN       FAIR      60  31  33 SW3       30.04F
$$
MNZ006-009>011-018-025>026-021600-
   North Central Minnesota

CITY           SKY/WX    TMP DP  RH WIND       PRES   REMARKS
BAUDETTE       SUNNY     58  30  34 SE6       30.07S
FLAG ISLAND    SUNNY     46  39  76 S5        30.07F
INTL FALLS     SUNNY     56  32  40 VRB5      30.08F
WASKISH        SUNNY     59  34  38 CALM      30.07S
BIG FORK       SUNNY     55  36  47 CALM      30.07F
LONGVILLE      SUNNY     57  34  41 SW5       30.08S
GRAND RAPIDS   SUNNY     54  34  47 S5        30.10F
CRANE LAKE     SUNNY     54  34  47 CALM      30.11F
ORR            SUNNY     55  28  35 CALM      30.06F
COOK           SUNNY     55  34  44 SW6       30.09F
WALKER         FAIR      57  36  45 E6        30.06F
$$
MNZ012-019>021-037-021600-
   Northeast Minnesota

CITY           SKY/WX    TMP DP  RH WIND       PRES   REMARKS
DULUTH         MOSUNNY   54  33  45 CALM      30.10F
ELY            SUNNY     54  28  37 CALM      30.10F
HIBBING        SUNNY     52  32  46 SW5       30.09F
EVELETH        SUNNY     52  32  46 W5        30.11F
DULUTH HARBOR  SUNNY     43  36  75 E3        30.14F
TWO HARBORS    SUNNY     55  39  54 CALM      30.09F
SILVER BAY     SUNNY     57  32  38 E3        30.09F
GRAND MARAIS     N/A     42  33  70 CALM      30.13S
G MARAIS ARPRT SUNNY     54  27  35 W3        30.11F
$$
MNZ029>031-032-039>041-046>048-054>057-064-021600-
   West Central Minnesota

CITY           SKY/WX    TMP DP  RH WIND       PRES   REMARKS
FERGUS FALLS   SUNNY     55  36  47 SW5       30.05F
WHEATON        MOSUNNY   61  41  48 NW3       30.09F
MORRIS         CLOUDY    57  36  44 CALM      30.07F
ALEXANDRIA     PTSUNNY   54  33  45 SW3       30.09S
ELBOW LAKE     FAIR      55  37  51 CALM      30.08S
WADENA         PTSUNNY   54  37  54 CALM      30.07S
GLENWOOD       CLOUDY    57  34  41 W6        30.09F
APPLETON       PTSUNNY   57  36  44 W5        30.09S
BENSON         CLOUDY    59  36  41 W3        30.09F
ORTONVILLE     MOSUNNY   55  39  54 CALM      30.08F
MADISON        MOSUNNY   61  36  39 NW8       30.09S
WILLMAR        FAIR      61  36  39 SW6       30.11F
$$
MNZ033>034-036-042>043-049>051-058-059-021600-
   Central Minnesota

CITY           SKY/WX    TMP DP  RH WIND       PRES   REMARKS
ST CLOUD       SUNNY     55  33  43 SW3       30.10F
SAUK CENTRE    FAIR      60  35  39 SW5       30.09S
PAYNESVILLE    SUNNY     58  36  44 SE6       30.10F
AITKIN         SUNNY     61  28  29 S3        30.08S
PINE RIVER     MOSUNNY   55  37  50 CALM      30.11F
BRAINERD       SUNNY     57  33  40 VRB5      30.09F
STAPLES        MOSUNNY   55  34  44 CALM      30.07F
LONG PRAIRIE   FAIR      57  34  41 S5        30.09S
LITTLE FALLS   SUNNY     55  32  41 CALM      30.10S
LITCHFIELD     SUNNY     57  36  44 CALM      30.11S
BUFFALO        SUNNY     56  36  47 SW5       30.12F
MAPLE LAKE     SUNNY     57  38  48 W3        30.12S
HUTCHINSON       N/A     58  38  47 CALM      30.12
$$
MNZ037-044-045-052-053-021600-
   East Central Minnesota

CITY           SKY/WX    TMP DP  RH WIND       PRES   REMARKS
PRINCETON      SUNNY     57  37  47 CALM      30.11F
MORA           SUNNY     54  37  54 CALM      30.12F
CAMBRIDGE      SUNNY     57  39  51 CALM      30.09F
RUSH CITY      SUNNY     53  38  56 CALM      30.11F
MOOSE LAKE     SUNNY     54  34  47 CALM      30.09F
HINCKLEY       FAIR      54  37  54 CALM      30.11F
CLOQUET        SUNNY     54  32  43 S3        30.10F
MCGREGOR       SUNNY     55  34  44 S3        30.10F
$$
MNZ071>073-080-081-089-090-097-098-021600-
   Southwest Minnesota

CITY           SKY/WX    TMP DP  RH WIND       PRES   REMARKS
MONTEVIDEO     SUNNY     59  39  47 NW3       30.11F
GRANITE FALLS  SUNNY     60  37  42 NW5       30.12F
CANBY          MOSUNNY   63  39  41 NW8G16    30.11S
MARSHALL       SUNNY     58  35  42 N3        30.11F
REDWOOD FALLS  SUNNY     58  34  40 CALM      30.11S
OLIVIA         SUNNY     55  36  47 SW3       30.11S
PIPESTONE      SUNNY     54  36  50 NW6       30.11S
WINDOM         SUNNY     57  36  44 CALM      30.12S
WORTHINGTON    SUNNY     56  36  47 VRB3      30.13R
JACKSON        SUNNY     55  36  47 CALM      30.12S
TRACY          SUNNY     59  35  40 NW5       30.11F
SLAYTON        SUNNY     55  36  49 NW5       30.12F
$$
MNZ065>067-074>077-082>085-091>093-021600-
   South Central Minnesota

CITY           SKY/WX    TMP DP  RH WIND       PRES   REMARKS
MANKATO        SUNNY     54  37  54 N6        30.12S
NEW ULM        SUNNY     55  39  54 NW5       30.11F
ST JAMES       SUNNY     52  36  54 NW6       30.13S
FAIRMONT       SUNNY     54  34  47 N6        30.11F
GLENCOE        SUNNY     57  42  58 W5        30.11S
FARIBAULT      SUNNY     57  39  51 S1        30.11S
OWATONNA       SUNNY     55  39  54 CALM      30.11S
WASECA         SUNNY     54  41  62 W6        30.12S
ALBERT LEA     PTSUNNY   55  41  58 SE1       30.11S
$$
MNZ078>079-086>088-094>096-021600-
   Southeast Minnesota

CITY           SKY/WX    TMP DP  RH WIND       PRES   REMARKS
ROCHESTER      MOSUNNY   55  41  59 SE7       30.12S
RED WING       SUNNY     57  39  51 CALM      30.10F
STANTON        SUNNY     55  39  56 CALM      30.10S
DODGE CENTER   SUNNY     57  45  62 S7        30.11S
WINONA         SUNNY     55  43  62 CALM      30.12S
AUSTIN         SUNNY     55  43  62 SE6       30.11S
PRESTON        MOSUNNY   53  40  62 SE7       30.12F
$$
ABBREVIATIONS USED IN REMARKS
   TC - TEMPERATURES IN CELSIUS
  WCI - WIND CHILL INDEX
   HX - HEAT INDEX
  VSB - VISIBILITY
$$




USA.gov is the U.S. government's official web portal to all federal, state and local government web resources and services.